Weather History for PATK - January, 2014

Change the Weather History Date:

Friday, January 24, 2014

  Actual Average Record
Temperature  
Mean Temperature 38 °F -  
Max Temperature 41 °F 17 °F 41 °F (2014)
Min Temperature 34 °F -5 °F -46 °F (1971)
Degree Days  
Heating Degree Days 28    
Moisture  
Dew Point 36 °F    
Average Humidity 95    
Maximum Humidity 100    
Minimum Humidity 89    
Precipitation  
Precipitation 0.31 in - - ()
Sea Level Pressure  
Sea Level Pressure 29.90 in    
Wind  
Wind Speed 2 mph (NNE)    
Max Wind Speed 5 mph    
Max Gust Speed -    
Visibility 6 miles    
Events Rain    
Averages and records for this station are not official NWS values.
T = Trace of Precipitation, MM = Missing Value Source: NWS Daily Summary

Daily Weather History Graph

Daily Weather History Graph

Search for Another Location

Airport or City:

Trip Planner

Search our weather history database for the weather conditions in past years. The results will help you decide how hot, cold, wet, or windy it might be!

Date:

Astronomy

Jan. 24, 2014 Rise Set
Actual Time 9:47 AM AKST 4:38 PM AKST
Civil Twilight 8:52 AM AKST 5:33 PM AKST
Nautical Twilight 7:55 AM AKST 6:30 PM AKST
Astronomical Twilight 7:02 AM AKST 7:23 PM AKST
Moon 3:00 AM AKST (1/24) 11:23 AM AKST (1/24)
Length of Visible Light 8h 41m
Length of Day
6h 50m
Last Quarter, 43% of the Moon is Illuminated
Jan 24
Last Quarter
Jan 30
New
Feb 6
First Quarter
Feb 14
Full
Feb 22
Last Quarter

Hourly Weather History & Observations

Time (AKST) Temp. Windchill Dew Point Humidity Pressure Visibility Wind Dir Wind Speed Gust Speed Precip Events Conditions
12:53 AM 41.0 °F 38.0 °F 37.9 °F 89% 29.63 in 10.0 mi North 4.6 mph - 0.06 in Rain Light Rain
1:53 AM 39.9 °F 37.8 °F 37.9 °F 93% 29.65 in 5.0 mi NW 3.5 mph - 0.06 in Rain Rain
2:53 AM 39.9 °F 37.8 °F 37.9 °F 93% 29.62 in 10.0 mi North 3.5 mph - 0.08 in Rain Light Rain
3:53 AM 37.9 °F - 37.0 °F 97% 29.65 in 5.0 mi Calm Calm - 0.04 in Rain Light Rain
4:53 AM 37.9 °F - 37.0 °F 97% 29.67 in 8.0 mi Calm Calm - 0.07 in Rain Light Rain
5:37 AM 37.4 °F - 35.6 °F 93% 29.68 in 2.5 mi Calm Calm - 0.05 in Rain Rain
5:53 AM 37.0 °F - 36.0 °F 96% 29.71 in 2.5 mi Calm Calm - 0.08 in Rain Rain
6:16 AM 35.6 °F - 35.6 °F 100% 29.72 in 3.0 mi Calm Calm - 0.03 in Rain Rain
6:23 AM 35.6 °F - 35.6 °F 100% 29.72 in 2.5 mi Calm Calm - 0.04 in Rain Rain
6:32 AM 35.6 °F - 35.6 °F 100% 29.73 in 1.8 mi Calm Calm - 0.05 in Rain Rain
6:40 AM 37.4 °F - 35.6 °F 93% 29.73 in 2.5 mi Calm Calm - 0.07 in Rain Light Rain
6:53 AM 36.0 °F - 35.1 °F 97% 29.75 in 2.0 mi Calm Calm - 0.08 in Rain Light Rain
7:04 AM 35.6 °F - 35.6 °F 100% 29.74 in 3.0 mi Calm Calm - 0.00 in Rain Light Rain
7:32 AM 35.6 °F - 35.6 °F 100% 29.76 in 1.8 mi Calm Calm - 0.02 in Rain Light Rain
7:53 AM 35.1 °F - 34.0 °F 96% 29.80 in 2.0 mi Calm Calm - 0.02 in Rain Light Rain
8:05 AM 35.6 °F - 35.6 °F 100% 29.79 in 3.0 mi Calm Calm - 0.02 in Rain Light Rain
8:53 AM 36.0 °F - 36.0 °F 100% 29.84 in 3.0 mi Calm Calm - 0.04 in Rain Light Rain
9:53 AM 37.9 °F 35.5 °F 37.0 °F 97% 29.91 in 4.0 mi NNE 3.5 mph - 0.01 in Rain Light Rain
10:13 AM 37.4 °F 34.9 °F 37.4 °F 100% 29.91 in 4.0 mi NNE 3.5 mph - 0.01 in Rain Light Rain
10:43 AM 37.4 °F 33.8 °F 37.4 °F 100% 29.94 in 2.5 mi NNE 4.6 mph - 0.01 in Rain Light Rain
10:53 AM 37.0 °F 33.3 °F 36.0 °F 96% 29.97 in 3.0 mi NE 4.6 mph - 0.01 in Rain Light Rain
11:51 AM 39.2 °F 37.0 °F 37.4 °F 93% 29.99 in 10.0 mi North 3.5 mph - 0.01 in   Mostly Cloudy
11:53 AM 39.0 °F 36.8 °F 37.0 °F 93% 30.01 in 10.0 mi NNE 3.5 mph - 0.01 in   Mostly Cloudy
12:53 PM 37.9 °F 35.5 °F 36.0 °F 93% 30.05 in 10.0 mi ENE 3.5 mph - N/A   Mostly Cloudy
1:53 PM 41.0 °F 39.0 °F 37.9 °F 89% 30.06 in 10.0 mi NNE 3.5 mph - N/A   Scattered Clouds
2:53 PM 39.9 °F 37.8 °F 37.9 °F 93% 30.08 in 10.0 mi NE 3.5 mph - N/A   Mostly Cloudy
3:53 PM 39.0 °F 36.8 °F 37.0 °F 93% 30.09 in 10.0 mi NNE 3.5 mph - N/A   Mostly Cloudy
4:53 PM 37.9 °F - 36.0 °F 93% 30.11 in 10.0 mi Calm Calm - N/A   Mostly Cloudy
5:53 PM 37.9 °F 35.5 °F 36.0 °F 93% 30.13 in 10.0 mi North 3.5 mph - N/A   Clear
6:53 PM 37.0 °F 34.5 °F 35.1 °F 93% 30.14 in 10.0 mi NNE 3.5 mph - N/A   Clear
7:53 PM 37.0 °F 33.3 °F 35.1 °F 93% 30.16 in 10.0 mi NNE 4.6 mph - N/A   Clear
8:53 PM 36.0 °F 32.1 °F 34.0 °F 93% 30.16 in 10.0 mi North 4.6 mph - N/A   Clear
9:53 PM 35.1 °F - 34.0 °F 96% 30.17 in 10.0 mi Calm Calm - N/A   Clear
10:53 PM 37.0 °F 33.3 °F 34.0 °F 89% 30.17 in 10.0 mi North 4.6 mph - N/A   Clear
11:53 PM 37.0 °F 34.5 °F 34.0 °F 89% 30.17 in 10.0 mi North 3.5 mph - N/A   Overcast